Simultaneous Nadir Overpasses (SNOs) Predictions

Prediction of SNOs between AURA and NPP Satellite Orbit:

Table of predicted SNOs for the next 14.0 days since TLE Epoch: 6/3/2016
Index Date (AURA) Time (AURA) Lat,Lon (AURA) SZA (AURA ) Date (NPP) Time (NPP) Lat,Lon (NPP) SZA (NPP ) Distance(km) Time Diff (sec)
1 06/04/2016 02:52:03 -79.29,-147.73 109.44 06/04/2016 02:51:55 -79.29,-147.70 109.44 0.68 8
2 06/04/2016 03:41:23 79.52, 21.44 70.23 06/04/2016 03:42:33 79.51, 21.38 70.19 1.22 70
3 06/06/2016 18:19:11 79.03, 158.92 70.68 06/06/2016 18:18:12 79.03, 158.85 70.74 1.54 59
4 06/06/2016 19:08:30 -79.36, -31.41 109.79 06/06/2016 19:08:48 -79.35, -31.44 109.80 0.75 18
5 06/09/2016 10:35:37 79.13, -84.59 70.33 06/09/2016 10:35:04 79.13, -84.69 70.38 2.16 33
6 06/09/2016 11:24:56 -79.45, 85.13 110.14 06/09/2016 11:25:40 -79.45, 85.07 110.16 1.31 44
7 06/12/2016 02:52:02 79.26, 32.10 69.99 06/12/2016 02:51:55 79.25, 32.02 70.01 1.94 7
8 06/12/2016 03:41:22 -79.54,-158.38 110.43 06/12/2016 03:42:32 -79.54,-158.42 110.48 0.97 70
9 06/14/2016 18:19:07 -79.12, -20.54 109.92 06/14/2016 18:18:08 -79.12, -20.48 109.89 1.29 59
10 06/14/2016 19:08:27 79.34, 148.51 69.76 06/14/2016 19:08:46 79.34, 148.47 69.75 0.87 19




NCC Satellite Simultaneous Nadir Overpasses (SNOs) Prediction Service
